Tracking 32523 objects as of 13-Dec-2025
HD Live streaming from Space Station
objects crossing your sky now

STARLINK-32546

Track STARLINK-32546 now!
10-day predictions
STARLINK-32546 is classified as:


NORAD ID: 62134
Int'l Code: 2024-222W
Perigee: 488.4 km
Apogee: 492.1 km
Inclination: 43.0 °
Period: 94.3 minutes
Semi major axis: 6861 km
RCS: Unknown
Launch date: November 26, 2024
Source: (USA)
Launch site: AIR FORCE EASTERN TEST RANGE (AFETR)
Your satellite tracking list
Your tracking list is empty




NASA's NSSDC Master Catalog

Two Line Element Set (TLE):
1 62134U 24222W   25346.18171792  .00056344  00000-0  20422-2 0  9998
2 62134  43.0018 267.1098 0002658 253.4823 106.5736 15.27566618 59295
Source of the keplerian elements: AFSPC